FW7644 Weather Reports


time (UTC)temp
F
wind
direction
speed
knots
gust
knots
rain 1hr
in
rain 24hr
in
rain mn
in
humidity
%
barometer
mb
20260905130307 57 0.0 0.0 0.09 0.61 0.29 99 1018.0
20260905125804 56 0.0 0.0 0.09 0.61 0.29 99 1017.9
20260905125305 56 0.0 0.0 0.09 0.61 0.29 99 1017.8
20260905124800 56 0.0 0.0 0.09 0.61 0.29 99 1017.9
20260905124257 55 0.0 0.0 0.09 0.61 0.29 99 1017.8
20260905123755 55 0.0 0.0 0.09 0.61 0.29 99 1017.6
20260905123252 55 0.0 0.0 0.07 0.59 0.27 99 1017.8
20260905122749 55 0.0 0.0 0.04 0.56 0.24 99 1017.8
20260905122247 55 0.0 0.0 0.00 0.52 0.20 99 1018.3
20260905121744 55 0.0 0.0 0.00 0.52 0.20 99 1017.7
20260905121241 56 0.0 0.0 0.00 0.52 0.20 99 1017.7
20260905120739 56 0.0 0.0 0.00 0.52 0.20 99 1017.5
20260905120236 56 0.0 0.0 0.00 0.52 0.20 99 1017.7
20260905115733 55 0.0 0.0 0.00 0.52 0.20 99 1017.3
20260905115230 55 0.0 0.0 0.00 0.52 0.20 99 1017.5
20260905114728 55 0.0 0.0 0.00 0.52 0.20 99 1017.8
20260905114226 55 0.0 0.0 0.00 0.52 0.20 99 1017.4
20260905113723 55 0.0 0.0 0.00 0.52 0.20 99 1017.7
20260905113221 54 0.0 0.0 0.00 0.52 0.20 99 1018.0
20260905112719 55 0.0 0.0 0.16 0.52 0.20 99 1018.1
20260905112217 55 0.0 0.0 0.16 0.52 0.20 99 1018.0
20260905111715 55 0.0 0.0 0.19 0.52 0.20 99 1018.0
20260905111212 55 0.0 0.0 0.19 0.52 0.20 99 1017.8
20260905110710 55 0.0 0.0 0.19 0.52 0.20 99 1017.7
20260905110209 55 0.0 0.0 0.19 0.52 0.20 99 1017.5
20260905105707 54 0.0 0.0 0.19 0.52 0.20 99 1017.4
20260905105206 55 0.0 0.0 0.19 0.52 0.20 99 1017.7
20260905104704 55 0.0 0.0 0.19 0.52 0.20 99 1017.5
20260905104202 55 0.0 0.0 0.19 0.52 0.20 99 1017.9
20260905103701 54 0.0 0.0 0.20 0.52 0.20 99 1017.9
20260905103159 54 0.0 0.0 0.20 0.52 0.20 99 1017.7
20260905102657 54 0.0 0.0 0.19 0.51 0.19 99 1016.9
20260905102156 54 0.0 0.0 0.10 0.42 0.10 99 1017.9
20260905101654 55 0.0 0.0 0.01 0.33 0.01 99 1018.7
20260905101152 55 0.0 0.0 0.01 0.33 0.01 99 1017.9
20260905100651 54 0.0 0.0 0.01 0.33 0.01 99 1017.7
20260905100149 54 0.0 0.0 0.01 0.33 0.01 99 1017.6
20260905095648 54 0.0 0.0 0.01 0.33 0.01 99 1016.6
20260905095146 54 0.0 0.0 0.01 0.33 0.01 99 1016.5
20260905094644 54 0.0 0.0 0.01 0.33 0.01 99 1016.5
20260905094142 54 0.0 0.0 0.01 0.33 0.01 99 1016.5
20260905093640 54 0.0 0.0 0.01 0.33 0.01 99 1016.5
20260905093139 54 0.0 0.0 0.00 0.32 0.00 99 1016.8
20260905092637 55 0.0 0.0 0.00 0.32 0.00 99 1016.6
20260905092136 54 0.0 0.0 0.00 0.32 0.00 99 1016.2
20260905091634 54 0.0 0.0 0.00 0.32 0.00 99 1016.0
20260905091132 54 0.0 0.0 0.00 0.32 0.00 99 1015.8
20260905090631 54 0.0 0.0 0.00 0.32 0.00 99 1015.2
20260905090129 54 0.0 0.0 0.00 0.32 0.00 99 1015.1
20260905085628 54 0.0 0.0 0.00 0.32 0.00 99 1015.3
20260905085126 54 0.0 0.0 0.00 0.32 0.00 99 1015.5
20260905084624 54 0.0 0.0 0.00 0.32 0.00 99 1015.7
20260905084123 54 0.0 0.0 0.00 0.32 0.00 99 1015.5
20260905083621 54 0.0 0.0 0.00 0.32 0.00 99 1015.5
20260905083120 54 0.0 0.0 0.00 0.32 0.00 99 1015.9
20260905082618 54 0.0 0.0 0.00 0.32 0.00 99 1015.9
20260905082117 54 0.0 0.0 0.00 0.32 0.00 99 1015.4
20260905081615 54 0.0 0.0 0.00 0.32 0.00 99 1015.7
20260905081114 54 0.0 0.0 0.00 0.32 0.00 99 1015.7
20260905080612 54 0.0 0.0 0.00 0.32 0.00 99 1016.1
20260905080110 54 0.0 0.0 0.00 0.32 0.00 99 1015.9
20260905075608 54 0.0 0.0 0.00 0.32 0.00 99 1016.1
20260905075107 55 0.0 0.0 0.00 0.32 0.00 99 1015.9
20260905074605 55 0.0 0.0 0.00 0.32 0.00 99 1016.0
20260905074103 54 0.0 0.0 0.00 0.32 0.00 99 1016.0
20260905073602 54 0.0 0.0 0.00 0.32 0.00 99 1015.7
20260905073100 54 0.0 0.0 0.00 0.32 0.00 99 1015.6
20260905072558 54 0.0 0.0 0.00 0.32 0.00 99 1015.5
20260905072057 54 0.0 0.0 0.00 0.32 0.00 99 1015.4
20260905071555 54 0.0 0.0 0.00 0.32 0.00 99 1015.5
20260905071053 54 0.0 0.0 0.00 0.32 0.00 99 1015.8
20260905070551 54 0.0 0.0 0.00 0.32 0.00 99 1015.9
20260905070049 54 0.0 0.0 0.00 0.32 0.00 99 1015.9
20260905065548 54 0.0 0.0 0.00 0.32 0.00 99 1015.8
20260905065046 55 0.0 0.0 0.00 0.32 0.00 99 1015.8
20260905064545 54 0.0 0.0 0.00 0.32 0.00 99 1016.0
20260905064043 54 0.0 0.0 0.00 0.32 0.00 99 1016.0
20260905063542 54 0.0 0.0 0.00 0.32 0.00 99 1016.3
20260905063040 54 0.0 0.0 0.00 0.32 0.00 99 1016.4
20260905062539 55 0.0 0.0 0.00 0.32 0.00 99 1016.4
20260905062037 55 0.0 0.0 0.00 0.32 0.00 99 1016.2
20260905061536 55 0.0 0.0 0.00 0.32 0.00 99 1016.3
20260905061034 54 0.0 0.0 0.00 0.32 0.00 99 1016.2
20260905060533 54 0.0 0.0 0.00 0.32 0.00 99 1016.2
20260905060031 54 0.0 0.0 0.00 0.32 0.00 99 1016.2
20260905055530 55 0.0 0.0 0.00 0.32 0.00 99 1016.2
20260905055028 55 0.0 0.0 0.00 0.32 0.00 99 1016.1
20260905054527 55 0.0 0.0 0.00 0.32 0.00 99 1016.2
20260905054025 55 0.0 0.0 0.00 0.32 0.00 99 1016.5
20260905053524 54 0.0 0.0 0.00 0.32 0.00 99 1016.6
20260905053022 55 0.0 0.0 0.00 0.32 0.00 99 1016.7
20260905052520 55 0.0 0.0 0.00 0.32 0.00 99 1016.7
20260905052019 55 0.0 0.0 0.00 0.32 0.00 99 1016.4
20260905051517 55 0.0 0.0 0.00 0.32 0.00 99 1016.3
20260905051016 55 0.0 0.0 0.00 0.32 0.00 99 1016.6
20260905050514 55 0.0 0.0 0.00 0.32 0.00 99 1016.8
20260905050012 55 0.0 0.0 0.00 0.32 0.00 99 1016.8
20260905045511 55 0.0 0.0 0.00 0.32 0.00 99 1016.5
20260905045009 55 0.0 0.0 0.00 0.32 0.00 99 1016.5
20260905044507 55 0.0 0.0 0.00 0.32 0.00 99 1016.5
20260905044006 55 0.0 0.0 0.00 0.32 0.00 99 1016.5
20260905043504 55 0.0 0.0 0.00 0.32 0.00 99 1016.7
20260905043002 55 0.0 0.0 0.00 0.32 0.00 99 1016.6
20260905042501 55 0.0 0.0 0.00 0.32 0.00 99 1016.5
20260905041959 55 0.0 0.0 0.00 0.32 0.00 99 1016.5
20260905041458 55 0.0 0.0 0.00 0.32 0.00 99 1016.7
20260905040956 55 0.0 0.0 0.00 0.32 0.00 99 1016.8
20260905040454 55 0.0 0.0 0.00 0.32 0.00 99 1016.8
20260905035952 55 0.0 0.0 0.00 0.32 0.00 99 1017.1
20260905035451 55 0.0 0.0 0.00 0.32 0.00 99 1017.2
20260905034949 55 0.0 0.0 0.00 0.32 0.00 99 1017.1
20260905034448 55 0.0 0.0 0.00 0.32 0.00 99 1017.2
20260905033946 55 0.0 0.0 0.00 0.32 0.00 99 1017.2
20260905033444 55 0.0 0.0 0.00 0.32 0.00 99 1017.2
20260905032943 55 0.0 0.0 0.00 0.32 0.00 99 1017.3
20260905032441 55 0.0 0.0 0.00 0.32 0.00 99 1017.3
20260905031940 55 0.0 0.0 0.01 0.32 0.00 99 1017.5
20260905031438 55 0.0 0.0 0.01 0.32 0.00 99 1017.8
20260905030937 55 0.0 0.0 0.04 0.32 0.00 99 1017.7
20260905030435 55 0.0 0.0 0.04 0.32 0.00 99 1018.0
20260905025933 55 0.0 0.0 0.04 0.32 0.32 99 1018.3
20260905025432 55 0.0 0.0 0.04 0.32 0.32 99 1018.4
20260905024930 55 0.0 0.0 0.05 0.32 0.32 99 1018.2
20260905024428 55 0.0 0.0 0.05 0.32 0.32 99 1018.1
20260905023927 55 0.0 0.0 0.05 0.32 0.32 99 1017.9
20260905023425 55 0.0 0.0 0.05 0.32 0.32 99 1018.1
20260905022923 55 0.0 0.0 0.05 0.32 0.32 99 1018.5
20260905022421 55 0.0 0.0 0.05 0.32 0.32 99 1018.5
20260905021919 56 0.0 0.0 0.05 0.32 0.32 99 1018.4
20260905021417 56 0.0 0.0 0.05 0.32 0.32 99 1018.1
20260905020916 56 0.0 0.0 0.03 0.31 0.31 99 1018.3
20260905020414 56 0.0 0.0 0.02 0.30 0.30 99 1018.8
20260905015912 56 0.0 0.0 0.01 0.29 0.29 99 1018.3
20260905015410 56 0.0 0.0 0.01 0.29 0.29 99 1018.2
20260905014909 57 0.0 0.0 0.00 0.28 0.28 99 1018.4
20260905014406 56 0.0 0.0 0.00 0.28 0.28 99 1018.2
20260905013904 56 0.0 0.0 0.00 0.28 0.28 99 1017.9
20260905013403 56 0.0 0.0 0.00 0.28 0.28 99 1018.0
20260905012900 56 0.0 0.0 0.00 0.28 0.28 99 1018.0
20260905012359 56 0.0 0.0 0.00 0.28 0.28 99 1017.8
20260905011856 56 0.0 0.0 0.00 0.28 0.28 99 1017.6
20260905011354 56 0.0 0.0 0.00 0.28 0.28 99 1017.5
20260905010853 56 0.0 0.0 0.00 0.28 0.28 99 1017.6
20260905010351 56 0.0 0.0 0.00 0.28 0.28 99 1017.7
20260905005849 56 0.0 0.0 0.00 0.28 0.28 99 1017.9
20260905005347 56 0.0 0.0 0.00 0.28 0.28 99 1017.7
20260905004845 56 0.0 0.0 0.00 0.28 0.28 99 1017.7
20260905004343 56 0.0 0.0 0.00 0.28 0.28 99 1017.9
20260905003842 57 0.0 0.0 0.00 0.28 0.28 99 1018.0
20260905003340 57 0.0 0.0 0.00 0.28 0.28 99 1017.8
20260905002838 57 0.0 0.0 0.00 0.28 0.28 99 1017.7
20260905002336 57 0.0 0.0 0.00 0.28 0.28 99 1017.6
20260905001834 57 0.0 0.0 0.00 0.28 0.28 99 1017.5
20260905001332 57 0.0 0.0 0.00 0.28 0.28 99 1017.4
20260905000830 57 0.0 0.0 0.00 0.28 0.28 99 1017.2
20260905000328 57 0.0 0.0 0.00 0.28 0.28 99 1017.3
20260904235825 57 0.0 0.0 0.00 0.28 0.28 99 1017.2
20260904235323 58 0.0 0.0 0.00 0.28 0.28 99 1017.2
20260904234821 58 0.0 0.0 0.00 0.28 0.28 99 1017.1
20260904234319 58 0.0 0.0 0.00 0.28 0.28 99 1017.3
20260904233817 58 0.0 0.0 0.00 0.28 0.28 99 1017.1
20260904233315 58 0.0 0.0 0.00 0.28 0.28 99 1017.1
20260904232813 58 0.0 0.0 0.00 0.28 0.28 99 1017.0
20260904232311 59 0.0 0.0 0.00 0.28 0.28 99 1017.0
20260904231809 59 0.0 0.0 0.00 0.28 0.28 99 1016.9
20260904231308 60 0.0 0.0 0.00 0.28 0.28 99 1016.9
20260904230806 60 0.0 0.0 0.00 0.28 0.28 99 1016.9
20260904230305 60 0.0 0.0 0.00 0.28 0.28 99 1016.8
20260904225803 60 0.0 0.0 0.00 0.28 0.28 99 1016.8
20260904225301 60 0.0 0.0 0.00 0.28 0.28 99 1016.8
20260904224759 60 0.0 0.0 0.00 0.28 0.28 99 1016.6
20260904224256 60 0.0 0.0 0.00 0.28 0.28 99 1016.3
20260904223754 60 0.0 0.0 0.01 0.28 0.28 99 1016.2
20260904223252 60 0.0 0.0 0.01 0.28 0.28 99 1016.2
20260904222750 60 0.0 0.0 0.01 0.28 0.28 99 1016.5
20260904222248 60 0.0 0.0 0.01 0.28 0.28 99 1016.6
20260904221746 60 0.0 0.0 0.01 0.28 0.28 99 1016.5
20260904221244 60 0.0 0.0 0.01 0.28 0.28 99 1016.5
20260904220742 61 0.0 0.0 0.01 0.28 0.28 99 1016.6
20260904220240 61 0.0 0.0 0.01 0.28 0.28 99 1016.5
20260904215738 61 0.0 0.0 0.01 0.28 0.28 99 1016.8
20260904215236 61 0.0 0.0 0.01 0.28 0.28 99 1016.9
20260904214734 61 0.0 0.0 0.02 0.28 0.28 99 1017.1
20260904214232 61 0.0 0.0 0.02 0.28 0.28 99 1017.4
20260904213730 61 0.0 0.0 0.04 0.28 0.28 99 1017.3
20260904213228 61 0.0 0.0 0.04 0.28 0.28 99 1017.4
20260904212726 61 0.0 0.0 0.06 0.27 0.27 99 1017.5
20260904212225 61 0.0 0.0 0.06 0.27 0.27 99 1017.5
20260904211723 61 0.0 0.0 0.06 0.27 0.27 99 1017.5
20260904211221 61 0.0 0.0 0.06 0.27 0.27 99 1017.6
20260904210720 61 0.0 0.0 0.07 0.27 0.27 99 1017.5
20260904210219 61 0.0 0.0 0.07 0.27 0.27 99 1017.2
20260904205717 61 0.0 0.0 0.07 0.27 0.27 99 1017.0
20260904205215 61 0.0 0.0 0.07 0.27 0.27 99 1016.6
20260904204714 61 0.0 0.0 0.07 0.27 0.27 99 1016.4
20260904204212 62 0.0 0.0 0.07 0.27 0.27 99 1016.8
20260904203710 62 0.0 0.0 0.05 0.25 0.25 99 1017.5
20260904203208 62 0.0 0.0 0.04 0.24 0.24 99 1017.7
20260904202706 62 0.0 0.0 0.03 0.23 0.23 99 1017.9
20260904202205 62 0.0 0.0 0.02 0.22 0.22 99 1018.2
20260904201703 62 0.0 0.0 0.01 0.21 0.21 99 1018.0
20260904201201 62 0.0 0.0 0.01 0.21 0.21 99 1017.6
20260904200700 62 0.0 0.0 0.01 0.20 0.20 99 1017.6
20260904200158 62 0.0 0.0 0.01 0.20 0.20 99 1017.3
20260904195656 62 0.0 0.0 0.01 0.20 0.20 99 1017.1
20260904195154 62 0.0 0.0 0.01 0.20 0.20 99 1017.0
20260904194653 63 0.0 0.0 0.01 0.20 0.20 98 1017.2
20260904194151 63 0.0 0.0 0.01 0.20 0.20 98 1017.3
20260904193649 63 0.0 0.0 0.01 0.20 0.20 98 1017.4
20260904193147 63 0.0 0.0 0.01 0.20 0.20 98 1017.6
20260904192646 63 0.0 0.0 0.01 0.20 0.20 97 1017.6
20260904192144 63 0.0 0.0 0.01 0.20 0.20 97 1017.2
20260904191642 63 0.0 0.0 0.01 0.20 0.20 96 1017.2
20260904191140 63 0.0 0.0 0.01 0.20 0.20 96 1017.1
20260904190638 63 0.0 0.0 0.01 0.20 0.20 96 1016.7
20260904190137 63 0.0 0.0 0.00 0.19 0.19 97 1016.1
20260904185635 63 0.0 0.0 0.00 0.19 0.19 95 1016.3
20260904185134 64 0.0 0.0 0.00 0.19 0.19 95 1016.4
20260904184632 64 0.0 0.0 0.00 0.19 0.19 94 1016.5
20260904184130 64 0.0 0.0 0.00 0.19 0.19 94 1016.2
20260904183628 64 0.0 0.0 0.00 0.19 0.19 93 1015.9
20260904183127 64 0.0 0.0 0.00 0.19 0.19 96 1016.3
20260904182625 64 0.0 0.0 0.02 0.19 0.19 96 1016.2
20260904182123 64 0.0 0.0 0.02 0.19 0.19 95 1016.3
20260904181622 64 0.0 0.0 0.04 0.19 0.19 95 1016.4
20260904181120 63 0.0 0.0 0.04 0.19 0.19 96 1016.7
20260904180619 63 0.0 0.0 0.11 0.19 0.19 96 1016.7
20260904180117 64 0.0 0.0 0.11 0.19 0.19 96 1016.6
20260904175615 63 0.0 0.0 0.17 0.19 0.19 97 1016.3
20260904175113 63 0.0 0.0 0.17 0.19 0.19 97 1016.1
20260904174613 62 0.0 0.0 0.19 0.19 0.19 98 1016.0
20260904174111 62 0.0 0.0 0.19 0.19 0.19 97 1016.3
20260904173609 62 0.0 0.0 0.19 0.19 0.19 97 1016.7
20260904173107 61 0.0 0.0 0.19 0.19 0.19 95 1016.3
20260904172605 62 0.0 0.0 0.18 0.18 0.18 93 1016.4
20260904172104 62 0.0 0.0 0.17 0.17 0.17 93 1017.5
20260904171602 62 0.0 0.0 0.17 0.17 0.17 93 1017.5
20260904171100 62 0.0 0.0 0.16 0.16 0.16 93 1018.1
20260904170559 62 0.0 0.0 0.14 0.14 0.14 88 1018.5
20260904170057 64 0.0 0.0 0.09 0.09 0.09 82 1018.2
20260904165555 64 0.0 0.0 0.06 0.06 0.06 76 1017.1
20260904165054 70 0.0 0.0 0.03 0.03 0.03 60 1016.3
20260904164552 73 0.0 0.0 0.00 0.00 0.00 46 1015.8
20260904164050 74 0.0 0.0 0.00 0.00 0.00 44 1015.6
20260904163548 74 0.0 0.0 0.00 0.00 0.00 44 1015.5
20260904163047 75 0.0 0.0 0.00 0.00 0.00 42 1015.5
20260904162545 76 0.0 0.0 0.00 0.00 0.00 42 1015.4
20260904162043 77 0.0 0.0 0.00 0.00 0.00 40 1015.4
20260904161541 76 0.0 0.0 0.00 0.00 0.00 39 1015.5
20260904161039 76 0.0 0.0 0.00 0.00 0.00 41 1015.7
20260904160537 78 0.0 0.0 0.00 0.00 0.00 38 1015.8
20260904160035 77 0.0 0.0 0.00 0.00 0.00 40 1015.8
20260904155532 78 0.0 0.0 0.00 0.00 0.00 38 1015.9
20260904155030 77 0.0 0.0 0.00 0.00 0.00 39 1016.1
20260904154528 76 0.0 0.0 0.00 0.00 0.00 41 1016.4
20260904154025 77 0.0 0.0 0.00 0.00 0.00 42 1016.3
20260904153522 75 0.0 0.0 0.00 0.00 0.00 44 1016.5
20260904153020 76 0.0 0.0 0.00 0.00 0.00 43 1016.7
20260904152518 75 0.0 0.0 0.00 0.00 0.00 44 1016.8
20260904152016 76 0.0 0.0 0.00 0.00 0.00 43 1016.8
20260904151514 76 0.0 0.0 0.00 0.00 0.00 42 1017.0
20260904151012 76 0.0 0.0 0.00 0.00 0.00 40 1017.0
20260904150510 77 0.0 0.0 0.00 0.00 0.00 40 1017.1
20260904150007 77 0.0 0.0 0.00 0.00 0.00 40 1017.1
20260904145505 77 0.0 0.0 0.00 0.00 0.00 39 1017.2
20260904145003 77 0.0 0.0 0.00 0.00 0.00 39 1017.2
20260904144501 77 0.0 0.0 0.00 0.00 0.00 38 1017.3
20260904143958 78 0.0 0.0 0.00 0.00 0.00 37 1017.4
20260904143456 78 0.0 0.0 0.00 0.00 0.00 37 1017.5
20260904142954 77 0.0 0.0 0.00 0.00 0.00 38 1017.5
20260904142452 77 0.0 0.0 0.00 0.00 0.00 38 1017.6
20260904141951 77 0.0 0.0 0.00 0.00 0.00 38 1017.6
20260904141449 78 0.0 0.0 0.00 0.00 0.00 37 1017.7
20260904140946 78 0.0 0.0 0.00 0.00 0.00 38 1017.8
20260904140444 77 0.0 0.0 0.00 0.00 0.00 41 1017.9
20260904135941 76 0.0 0.0 0.00 0.00 0.00 42 1018.0
20260904135439 75 0.0 0.0 0.00 0.00 0.00 43 1018.2
20260904134937 75 0.0 0.0 0.00 0.00 0.00 42 1018.2
20260904134435 76 0.0 0.0 0.00 0.00 0.00 41 1018.2
20260904133933 77 0.0 0.0 0.00 0.00 0.00 41 1018.1
20260904133431 78 0.0 0.0 0.00 0.00 0.00 38 1018.2
20260904132928 78 0.0 0.0 0.00 0.00 0.00 40 1018.1
20260904132424 77 0.0 0.0 0.00 0.00 0.00 41 1018.1
20260904131922 79 0.0 0.0 0.00 0.00 0.00 39 1018.2
20260904131420 79 0.0 0.0 0.00 0.00 0.00 40 1018.3
20260904130918 77 0.0 0.0 0.00 0.00 0.00 42 1018.4